TimeEST,TemperatureF,Dew PointF,Humidity,Sea Level PressureIn,VisibilityMPH,Wind Direction,Wind SpeedMPH,Gust SpeedMPH,PrecipitationIn,Events,Conditions,WindDirDegrees,DateUTC
12:54 AM,42.1,19.0,40,30.13,10.0,NNW,12.7,-,N/A,,Clear,330,2008-12-30 05:54:00
1:54 AM,43.0,19.0,38,30.13,10.0,NNW,15.0,23.0,N/A,,Clear,330,2008-12-30 06:54:00
2:54 AM,41.0,19.9,43,30.13,10.0,NW,11.5,-,N/A,,Clear,320,2008-12-30 07:54:00
3:54 AM,41.0,19.9,43,30.14,10.0,NNW,9.2,-,N/A,,Clear,330,2008-12-30 08:54:00
4:54 AM,37.9,21.0,51,30.15,10.0,NNW,8.1,-,N/A,,Clear,330,2008-12-30 09:54:00
5:54 AM,39.0,19.9,46,30.16,10.0,North,6.9,-,N/A,,Clear,350,2008-12-30 10:54:00
6:54 AM,39.0,21.0,49,30.15,10.0,North,12.7,-,N/A,,Clear,350,2008-12-30 11:54:00
7:54 AM,37.0,21.9,54,30.17,10.0,NNW,11.5,-,N/A,,Clear,340,2008-12-30 12:54:00
8:54 AM,41.0,23.0,49,30.14,10.0,NNW,12.7,-,N/A,,Clear,340,2008-12-30 13:54:00
9:54 AM,46.0,23.0,40,30.14,10.0,NNW,8.1,-,N/A,,Clear,340,2008-12-30 14:54:00
10:54 AM,48.9,23.0,36,30.13,10.0,North,6.9,-,N/A,,Clear,350,2008-12-30 15:54:00
11:54 AM,54.0,23.0,30,30.09,10.0,North,3.5,-,N/A,,Clear,350,2008-12-30 16:54:00
12:54 PM,59.0,21.9,24,30.03,10.0,Calm,Calm,-,N/A,,Clear,0,2008-12-30 17:54:00
1:54 PM,60.1,19.0,20,30.00,10.0,Calm,Calm,-,N/A,,Clear,0,2008-12-30 18:54:00
2:54 PM,64.9,14.0,14,29.98,10.0,Calm,Calm,-,N/A,,Clear,0,2008-12-30 19:54:00
3:54 PM,64.0,19.9,18,29.96,10.0,South,4.6,-,N/A,,Clear,170,2008-12-30 20:54:00
4:54 PM,61.0,28.0,29,29.95,10.0,SSW,6.9,-,N/A,,Clear,200,2008-12-30 21:54:00
5:54 PM,57.9,27.0,31,29.96,10.0,South,8.1,-,N/A,,Clear,190,2008-12-30 22:54:00
6:54 PM,52.0,28.0,40,29.96,10.0,South,5.8,-,N/A,,Clear,180,2008-12-30 23:54:00
7:54 PM,54.0,27.0,35,29.94,10.0,SSW,6.9,-,N/A,,Clear,200,2008-12-31 00:54:00
8:54 PM,46.9,28.0,48,29.93,10.0,Calm,Calm,-,N/A,,Clear,0,2008-12-31 01:54:00
9:54 PM,45.0,28.0,52,29.90,10.0,SSW,3.5,-,N/A,,Clear,210,2008-12-31 02:54:00
10:54 PM,45.0,27.0,49,29.88,10.0,Calm,Calm,-,N/A,,Clear,0,2008-12-31 03:54:00
11:54 PM,34.0,28.9,82,29.87,10.0,NNW,3.5,-,N/A,,Clear,330,2008-12-31 04:54:00